Time,TemperatureF,DewpointF,PressureIn,WindDirection,WindDirectionDegrees,WindSpeedMPH,WindSpeedGustMPH,Humidity,HourlyPrecipIn,Conditions,Clouds,dailyrainin,SolarRadiationWatts/m^2,SoftwareType,DateUTC
2013-08-10 00:02:00,50.0,46.0,-100.00,WNW,300,4.0,8.0,87,0.00,,,0.32,0.000000,,2013-08-10 06:02:00,
2013-08-10 00:11:00,50.0,46.0,-100.00,WNW,300,4.0,8.0,87,0.00,,,0.32,0.000000,,2013-08-10 06:11:00,
2013-08-10 00:44:00,48.0,45.0,-100.00,WNW,291,4.0,8.0,88,0.00,,,0.32,0.000000,,2013-08-10 06:44:00,
2013-08-10 00:53:00,48.0,45.0,-100.00,WNW,291,4.0,8.0,88,0.00,,,0.32,0.000000,,2013-08-10 06:53:00,
2013-08-10 01:02:00,48.0,45.0,-100.00,WNW,291,4.0,8.0,88,0.00,,,0.32,0.000000,,2013-08-10 07:02:00,
2013-08-10 01:12:00,48.0,45.0,-100.00,WNW,291,4.0,8.0,88,0.00,,,0.32,0.000000,,2013-08-10 07:12:00,
2013-08-10 01:43:00,48.0,44.0,-100.00,West,272,5.0,8.0,87,0.00,,,0.32,0.000000,,2013-08-10 07:43:00,
2013-08-10 01:52:00,48.0,44.0,-100.00,West,272,5.0,8.0,87,0.00,,,0.32,0.000000,,2013-08-10 07:52:00,
2013-08-10 02:01:00,48.0,44.0,-100.00,West,272,5.0,8.0,87,0.00,,,0.32,0.000000,,2013-08-10 08:01:00,
2013-08-10 02:12:00,48.0,44.0,-100.00,West,272,5.0,8.0,87,0.00,,,0.32,0.000000,,2013-08-10 08:12:00,
2013-08-10 02:43:00,47.0,43.0,-100.00,WNW,292,4.0,9.0,86,0.00,,,0.32,0.000000,,2013-08-10 08:43:00,
2013-08-10 02:53:00,47.0,43.0,-100.00,WNW,292,4.0,9.0,86,0.00,,,0.32,0.000000,,2013-08-10 08:53:00,
2013-08-10 03:02:00,47.0,43.0,-100.00,WNW,292,4.0,9.0,86,0.00,,,0.32,0.000000,,2013-08-10 09:02:00,
2013-08-10 03:12:00,47.0,43.0,-100.00,WNW,292,4.0,9.0,86,0.00,,,0.32,0.000000,,2013-08-10 09:12:00,
2013-08-10 03:43:00,47.0,43.0,-100.00,West,275,4.0,7.0,87,0.00,,,0.32,0.000000,,2013-08-10 09:43:00,
2013-08-10 03:52:00,47.0,43.0,-100.00,West,275,4.0,7.0,87,0.00,,,0.32,0.000000,,2013-08-10 09:52:00,
2013-08-10 04:02:00,47.0,43.0,-100.00,West,275,4.0,7.0,87,0.00,,,0.32,0.000000,,2013-08-10 10:02:00,
2013-08-10 04:11:00,47.0,43.0,-100.00,West,275,4.0,7.0,87,0.00,,,0.32,0.000000,,2013-08-10 10:11:00,
2013-08-10 04:44:00,47.0,43.0,-100.00,West,275,4.0,8.0,85,0.00,,,0.32,0.000000,,2013-08-10 10:44:00,
2013-08-10 04:53:00,47.0,43.0,-100.00,West,275,4.0,8.0,85,0.00,,,0.32,0.000000,,2013-08-10 10:53:00,
2013-08-10 05:02:00,47.0,43.0,-100.00,West,275,4.0,8.0,85,0.00,,,0.32,0.000000,,2013-08-10 11:02:00,
2013-08-10 05:11:00,47.0,43.0,-100.00,West,275,4.0,8.0,85,0.00,,,0.32,0.000000,,2013-08-10 11:11:00,
2013-08-10 07:43:00,48.0,42.0,-100.00,West,259,4.0,8.0,81,-99.99,,,0.32,29.000000,,2013-08-10 13:43:00,
2013-08-10 07:52:00,48.0,42.0,-100.00,West,259,4.0,8.0,81,-99.99,,,0.32,29.000000,,2013-08-10 13:52:00,
2013-08-10 08:02:00,48.0,42.0,-100.00,West,259,4.0,8.0,81,-99.99,,,0.32,29.000000,,2013-08-10 14:02:00,
2013-08-10 08:12:00,48.0,42.0,-100.00,West,259,4.0,8.0,81,-99.99,,,0.32,29.000000,,2013-08-10 14:12:00,
2013-08-10 08:43:00,56.0,45.0,-100.00,West,271,4.0,8.0,67,0.00,,,0.32,172.000000,,2013-08-10 14:43:00,
2013-08-10 08:53:00,56.0,45.0,-100.00,West,271,4.0,8.0,67,0.00,,,0.32,172.000000,,2013-08-10 14:53:00,
2013-08-10 09:02:00,56.0,45.0,-100.00,West,271,4.0,8.0,67,0.00,,,0.32,172.000000,,2013-08-10 15:02:00,
2013-08-10 09:11:00,56.0,45.0,-100.00,West,271,4.0,8.0,67,0.00,,,0.32,172.000000,,2013-08-10 15:11:00,
2013-08-10 09:52:00,65.0,47.0,-100.00,East,99,5.0,7.0,52,0.00,,,0.32,445.000000,,2013-08-10 15:52:00,
2013-08-10 10:01:00,65.0,47.0,-100.00,East,99,5.0,7.0,52,0.00,,,0.32,445.000000,,2013-08-10 16:01:00,
2013-08-10 10:11:00,65.0,47.0,-100.00,East,99,5.0,7.0,52,0.00,,,0.32,445.000000,,2013-08-10 16:11:00,
2013-08-10 10:43:00,64.0,52.0,-100.00,ESE,107,8.0,12.0,64,0.00,,,0.32,523.000000,,2013-08-10 16:43:00,
2013-08-10 10:53:00,64.0,52.0,-100.00,ESE,107,8.0,12.0,64,0.00,,,0.32,523.000000,,2013-08-10 16:53:00,
2013-08-10 11:02:00,64.0,52.0,-100.00,ESE,107,8.0,12.0,64,0.00,,,0.32,523.000000,,2013-08-10 17:02:00,
2013-08-10 11:12:00,64.0,52.0,-100.00,ESE,107,8.0,12.0,64,0.00,,,0.32,523.000000,,2013-08-10 17:12:00,
2013-08-10 11:43:00,66.0,51.0,-100.00,ESE,105,10.0,15.0,58,0.00,,,0.32,781.000000,,2013-08-10 17:43:00,
2013-08-10 11:52:00,66.0,51.0,-100.00,ESE,105,10.0,15.0,58,0.00,,,0.32,781.000000,,2013-08-10 17:52:00,
2013-08-10 12:01:00,66.0,51.0,-100.00,ESE,105,10.0,15.0,58,0.00,,,0.32,781.000000,,2013-08-10 18:01:00,
2013-08-10 12:11:00,66.0,51.0,-100.00,ESE,105,10.0,15.0,58,0.00,,,0.32,781.000000,,2013-08-10 18:11:00,
2013-08-10 12:44:00,68.0,49.0,-100.00,ESE,123,9.0,18.0,50,0.00,,,0.32,917.000000,,2013-08-10 18:44:00,
2013-08-10 12:52:00,68.0,49.0,-100.00,ESE,123,9.0,18.0,50,0.00,,,0.32,917.000000,,2013-08-10 18:52:00,
2013-08-10 13:02:00,68.0,49.0,-100.00,ESE,123,9.0,18.0,50,0.00,,,0.32,917.000000,,2013-08-10 19:02:00,
2013-08-10 13:11:00,68.0,49.0,-100.00,ESE,123,9.0,18.0,50,0.00,,,0.32,917.000000,,2013-08-10 19:11:00,
2013-08-10 13:44:00,71.0,47.0,-100.00,ESE,119,7.0,13.0,43,0.00,,,0.32,1007.000000,,2013-08-10 19:44:00,
2013-08-10 13:53:00,71.0,47.0,-100.00,ESE,119,7.0,13.0,43,0.00,,,0.32,1007.000000,,2013-08-10 19:53:00,
2013-08-10 14:01:00,71.0,47.0,-100.00,ESE,119,7.0,13.0,43,0.00,,,0.32,1007.000000,,2013-08-10 20:01:00,
2013-08-10 14:11:00,71.0,47.0,-100.00,ESE,119,7.0,13.0,43,0.00,,,0.32,1007.000000,,2013-08-10 20:11:00,
2013-08-10 14:43:00,71.0,46.0,-100.00,ESE,106,11.0,17.0,41,0.00,,,0.09,824.000000,,2013-08-10 20:43:00,
2013-08-10 14:53:00,71.0,46.0,-100.00,ESE,106,11.0,17.0,41,0.00,,,0.09,824.000000,,2013-08-10 20:53:00,
2013-08-10 15:02:00,71.0,46.0,-100.00,ESE,106,11.0,17.0,41,0.00,,,0.09,824.000000,,2013-08-10 21:02:00,
2013-08-10 15:12:00,71.0,46.0,-100.00,ESE,106,11.0,17.0,41,0.00,,,0.09,824.000000,,2013-08-10 21:12:00,
2013-08-10 15:42:00,68.0,48.0,-100.00,ENE,68,1.0,13.0,49,0.00,,,0.01,163.000000,,2013-08-10 21:42:00,
2013-08-10 15:52:00,68.0,48.0,-100.00,ENE,68,1.0,13.0,49,0.00,,,0.01,163.000000,,2013-08-10 21:52:00,
2013-08-10 16:01:00,68.0,48.0,-100.00,ENE,68,1.0,13.0,49,0.00,,,0.01,163.000000,,2013-08-10 22:01:00,
2013-08-10 16:11:00,68.0,48.0,-100.00,ENE,68,1.0,13.0,49,0.00,,,0.01,163.000000,,2013-08-10 22:11:00,
2013-08-10 16:43:00,65.0,37.0,-100.00,NW,317,5.0,18.0,36,0.00,,,0.00,41.000000,,2013-08-10 22:43:00,
2013-08-10 16:52:00,65.0,37.0,-100.00,NW,317,5.0,18.0,36,0.00,,,0.00,41.000000,,2013-08-10 22:52:00,
2013-08-10 17:01:00,65.0,37.0,-100.00,NW,317,5.0,18.0,36,0.00,,,0.00,41.000000,,2013-08-10 23:01:00,
2013-08-10 17:12:00,65.0,37.0,-100.00,NW,317,5.0,18.0,36,0.00,,,0.00,41.000000,,2013-08-10 23:12:00,
2013-08-10 17:43:00,63.0,40.0,-100.00,West,274,4.0,15.0,42,0.00,,,0.00,85.000000,,2013-08-10 23:43:00,
2013-08-10 17:53:00,63.0,40.0,-100.00,West,274,4.0,15.0,42,0.00,,,0.00,85.000000,,2013-08-10 23:53:00,
2013-08-10 18:02:00,63.0,40.0,-100.00,West,274,4.0,15.0,42,0.00,,,0.00,85.000000,,2013-08-11 00:02:00,
2013-08-10 18:11:00,63.0,40.0,-100.00,West,274,4.0,15.0,42,0.00,,,0.00,85.000000,,2013-08-11 00:11:00,
2013-08-10 18:42:00,66.0,44.0,-100.00,NW,322,2.0,10.0,45,0.00,,,0.00,239.000000,,2013-08-11 00:42:00,
2013-08-10 18:52:00,66.0,44.0,-100.00,NW,322,2.0,10.0,45,0.00,,,0.00,239.000000,,2013-08-11 00:52:00,
2013-08-10 19:01:00,66.0,44.0,-100.00,NW,322,2.0,10.0,45,0.00,,,0.00,239.000000,,2013-08-11 01:01:00,
2013-08-10 19:11:00,66.0,44.0,-100.00,NW,322,2.0,10.0,45,0.00,,,0.00,239.000000,,2013-08-11 01:11:00,
2013-08-10 19:43:00,69.0,45.0,-100.00,NW,326,1.0,5.0,42,0.00,,,-99.99,234.000000,,2013-08-11 01:43:00,
2013-08-10 19:54:00,69.0,45.0,-100.00,NW,326,1.0,5.0,42,0.00,,,-99.99,234.000000,,2013-08-11 01:54:00,
2013-08-10 20:02:00,69.0,45.0,-100.00,NW,326,1.0,5.0,42,0.00,,,-99.99,234.000000,,2013-08-11 02:02:00,
2013-08-10 20:11:00,69.0,45.0,-100.00,NW,326,1.0,5.0,42,0.00,,,-99.99,234.000000,,2013-08-11 02:11:00,
2013-08-10 20:15:00,57.0,44.0,-100.00,WNW,284,3.0,6.0,61,0.00,,,0.00,84.000000,,2013-08-11 02:15:00,
2013-08-10 20:43:00,57.0,44.0,-100.00,WNW,284,3.0,6.0,61,0.00,,,0.00,84.000000,,2013-08-11 02:43:00,
2013-08-10 20:57:00,57.0,44.0,-100.00,WNW,284,3.0,6.0,61,0.00,,,0.00,84.000000,,2013-08-11 02:57:00,
2013-08-10 21:05:00,57.0,44.0,-100.00,WNW,284,3.0,6.0,61,0.00,,,0.00,84.000000,,2013-08-11 03:05:00,
2013-08-10 21:46:00,56.0,42.0,-100.00,West,262,5.0,8.0,59,0.00,,,0.00,2.000000,,2013-08-11 03:46:00,
2013-08-10 21:56:00,56.0,42.0,-100.00,West,262,5.0,8.0,59,0.00,,,0.00,2.000000,,2013-08-11 03:56:00,
2013-08-10 22:01:00,56.0,42.0,-100.00,West,262,5.0,8.0,59,0.00,,,0.00,2.000000,,2013-08-11 04:01:00,
2013-08-10 22:12:00,56.0,42.0,-100.00,West,262,5.0,8.0,59,0.00,,,0.00,2.000000,,2013-08-11 04:12:00,
2013-08-10 22:43:00,56.0,41.0,-100.00,WNW,284,4.0,10.0,58,0.00,,,0.00,0.000000,,2013-08-11 04:43:00,
2013-08-10 22:53:00,56.0,41.0,-100.00,WNW,284,4.0,10.0,58,0.00,,,0.00,0.000000,,2013-08-11 04:53:00,
2013-08-10 23:02:00,56.0,41.0,-100.00,WNW,284,4.0,10.0,58,0.00,,,0.00,0.000000,,2013-08-11 05:02:00,
2013-08-10 23:15:00,59.0,39.0,-100.00,West,278,7.0,14.0,47,0.00,,,0.00,0.000000,,2013-08-11 05:15:00,
2013-08-10 23:49:00,59.0,39.0,-100.00,West,278,7.0,14.0,47,0.00,,,0.00,0.000000,,2013-08-11 05:49:00,
2013-08-10 23:56:00,59.0,39.0,-100.00,West,278,7.0,14.0,47,0.00,,,0.00,0.000000,,2013-08-11 05:56:00,